Location: Unspecified
(49.2170°N, 0.0000°E)
Time: 16:07:28
(UTC+00:00)

Vanguard 1 - Pass Details

Date: 23 June 2021
Orbit: 651 x 3832 km, 34.2° (Epoch: 23 July)

Event Time Altitude Azimuth Distance (km) Brightness Sun altitude
Rises 20:43:24 0° 237° (WSW) 7,746 14.8 -5.0°
Reaches altitude 10° 20:48:48 10° 232° (SW) 6,870 14.4 -5.6°
Maximum altitude 21:10:16 47° 168° (SSE) 4,235 12.9 -7.9°
Drops below altitude 10° 21:26:36 10° 102° (ESE) 5,372 13.4 -9.5°
Sets 21:30:11 0° 97° (E) 6,020 13.7 -9.9°
